Regional Weather Roundup
Issued by NWS Sterling, VA

Home | Current Version | Previous Version | Text Only | Print | Product List | Glossary Off
Versions: 1 2 3 4 5 6 7 8 9 10 11 12 13 14 15 16 17 18 19 20 21 22 23 24 25 26 27 28 29 30 31 32 33 34 35 36 37 38 39 40 41 42 43 44 45 46 47 48 49 50

000
ASUS41 KLWX 271511
RWRLWX

REGIONAL WEATHER ROUNDUP
NATIONAL WEATHER SERVICE BALTIMORE MD/WASHINGTON DC
1100 AM EDT THU APR 27 2017

Note: "FAIR" indicates few or no clouds below 12,000 feet
with no significant weather and/or obstructions to visibility.
 TC=TEMPERATURE CELSIUS

 * =Non NWS site. Station does not report precipitation (e.g. rain,
    snow, etc.), thunder, or fog.

DCZ001-MDZ009-015-VAZ040>042-051-053>054-271600-
WASHINGTON METRO

CITY           SKY/WX    TMP DP  RH WIND       PRES   REMARKS
WASHINGTON NAT PTSUNNY   72  64  76 S7        29.87R
DULLES         CLOUDY    65  61  87 S8        29.86S FOG
ANDREWS AFB    SUNNY     73  64  72 S6        29.86R
FT BELVOIR     CLOUDY    72  62  71 S9        29.86S
COLLEGE PARK*  SUNNY     69  62  77 CALM      29.86S
LEESBURG*      CLOUDY    63  63 100 SE6       29.87S FOG
MANASSAS*        N/A     67  62  84 CALM      29.86S

$$

MDZ006>007-011-014-271600-
BALTIMORE METRO

CITY           SKY/WX    TMP DP  RH WIND       PRES   REMARKS
BWI AIRPORT    PTSUNNY   68  63  84 VRB3      29.87R
MARTIN STATE   PTSUNNY   68  64  88 SE7       29.89R
ANNAPOLIS      PTSUNNY   66  63  90 SE8       29.87R
FORT MEADE*    PTSUNNY   66  61  82 CALM      29.90R

$$

MDZ012-015-019>023-271600-
MARYLAND EASTERN SHORE

CITY           SKY/WX    TMP DP  RH WIND       PRES   REMARKS
OCEAN CITY     MOSUNNY   62  59  90 S6        29.90R
SALISBURY      SUNNY     75  67  76 S12       29.88R
BAY BRIDGE AP* MOSUNNY   70  63  78 SW3       29.87S HAZE
CAMBRIDGE*     SUNNY     73  66  78 SE7       29.88R
EASTON*        MOSUNNY   73  64  73 SW5       29.91R

$$

MDZ017>025-271600-
SOUTHERN MARYLAND

CITY           SKY/WX    TMP DP  RH WIND       PRES   REMARKS
PATUXENT RIVER MOSUNNY   76  67  73 S9        29.87R
ST INIGOES     SUNNY     75  65  70 S10       29.87R
LEONARDTOWN*   SUNNY     73  63  68 SW9       29.89R

$$

MDZ003>005-271600-
NORTH CENTRAL MARYLAND

CITY           SKY/WX    TMP DP  RH WIND       PRES   REMARKS
FREDERICK*     CLOUDY    64  64 100 CALM      29.89S FOG
HAGERSTOWN APT CLOUDY    68  61  78 VRB6      29.84S HAZE
WESTMINSTER*   CLOUDY    64  61  88 S3        29.88R FOG

$$

MDZ501>502-271600-
WESTERN MARYLAND

CITY           SKY/WX    TMP DP  RH WIND       PRES   REMARKS
OAKLAND*       SUNNY     70  55  60 SE7       29.84S
CUMBERLAND*    CLOUDY    64  61  88 CALM      29.86S

$$

VAZ025>031-271600-
SHENANDOAH VALLEY

CITY           SKY/WX    TMP DP  RH WIND       PRES   REMARKS
WINCHESTER*    CLOUDY    66  61  82 CALM      29.82F
FRONT ROYAL*   CLOUDY    70  63  78 E7        29.82S
LURAY*         CLOUDY    77  59  53 S13G22    29.81F
NEW MARKET*    CLOUDY    75  59  58 SW10G22   29.80F
STAUNTON*      MOSUNNY   74  58  55 SW21      29.85S
WAYNESBORO*    CLOUDY    76  58  53 SW15G22   29.85S

$$

WVZ021-048>050-054>055-271600-
EASTERN WEST VIRGINIA PANHANDLE

CITY           SKY/WX    TMP DP  RH WIND       PRES   REMARKS
MARTINSBURG    CLOUDY    66  60  81 E8        29.83S
PETERSBURG*    MOSUNNY   64  62  91 CALM      29.80F

$$

VAZ036>039-050-271600-
CENTRAL FOOTHILLS

CITY           SKY/WX    TMP DP  RH WIND       PRES   REMARKS
CHARLOTTESVILL CLOUDY    73  64  73 S8        29.85S
CULPEPER*      CLOUDY    65  65 100 SW5       29.87F
ORANGE*        CLOUDY    72  63  73 SW3       29.85F
GORDONSVILLE*  CLOUDY    71  64  78 S9        29.85S
WARRENTON*     CLOUDY    68  61  76 SW5       29.85F

$$

VAZ055>057-271600-
NORTH AND CENTRAL PIEDMONT

CITY           SKY/WX    TMP DP  RH WIND       PRES   REMARKS
FREDERICKSBRG* MOSUNNY   76  65  67 S10       29.85S
STAFFORD*      CLOUDY    74  66  75 S3        29.89S

$$

NCZ024-NYZ072-PAZ021-071-VAZ022-071-271600-
OTHER REGIONAL OBSERVATIONS

CITY           SKY/WX    TMP DP  RH WIND       PRES   REMARKS
NEW YORK CITY  CLOUDY    63  59  87 CALM      29.94F FOG
PHILADELPHIA   MOSUNNY   71  60  68 SE6       29.89S
PITTSBURGH     CLOUDY    74  58  57 S10       29.69F
ROANOKE        CLOUDY    70  60  70 E7        29.88F
RICHMOND       PTSUNNY   77  64  64 S14       29.88R
RALEIGH        PTSUNNY   75  62  64 SW12      29.92F

$$

ANZ530>537-271600-
MARINE OBSERVATIONS

STATION/POSITION TIME  TEMP    WIND        PRES
                       AIR SEA DIR/SP/G
                 (UTC) (F)     (DEG/KT/KT) (MB)
THOMAS PT LIGHT  1500   61 58  240/  2/  3   N/A
BALT KEY BRIDGE  1448   62     110/  7/  7 1011.6R
COVE POINT       1448   60     170/ 10/ 11 1012.3R
LEWISETTA        1448   74 63  230/ 11/ 13 1011.4R
SOLOMONS ISLAND  1448   66 60   90/  5/  6   N/A
PINEY POINT      1448          170/  2/  3   N/A

$$




USA.gov is the U.S. government's official web portal to all federal, state and local government web resources and services.